Location: Kings Park
(40.8862°N, 73.2573°W)
Time: 06:09:51
(UTC+00:00)

Meteor 2-15 - Pass Details

Date: 29 October 2020
Orbit: 935 x 956 km, 82.5° (Epoch: 27 November)

Event Time Altitude Azimuth Distance (km) Brightness Sun altitude
Rises 22:55:17 0° 177° (S) 3,619 7.6 -12.5°
Reaches altitude 10° 22:57:47 10° 175° (S) 2,677 6.8 -12.9°
Maximum altitude 23:03:50 66° 94° (E) 1,036 4.4 -14.1°
Drops below altitude 10° 23:09:55 10° 14° (NNE) 2,685 6.6 -15.2°
Sets 23:12:25 0° 11° (NNE) 3,631 7.3 -15.7°
